When you browse on this site, cookies collect data to enhance your experience and personalize the content and advertising you see.
Visit our Privacy Policy to learn more. By continuing to use the site, you agree to this use of cookies and data.
  • In Latvia
  • List of Countries
  • For 7 days
  • Water Temperature
  • Satellite Maps
  • Weather Map
  • Weather Widgets
  • user-avatar
    Login

    Hourly Weather Kolynevo

    Today, 20 February, Wednesday

    Time Temperature Precipitation Wind Pressure Humidity
    00:00 -2°C° 0 mm 4 mps 733 mmHg 88%
    01:00 -2°C° 0 mm 4 mps 732 mmHg 88%
    02:00 -2°C° 0 mm 4 mps 732 mmHg 88%
    03:00 -1°C° 0.1 mm 4 mps 731 mmHg 88%
    04:00 -1°C° 0.1 mm 4 mps 730 mmHg 88%
    05:00 -1°C° 0.1 mm 5 mps 730 mmHg 89%
    06:00 -1°C° 0.2 mm 5 mps 729 mmHg 89%
    07:00 -1°C° 0.2 mm 5 mps 729 mmHg 89%
    08:00 0°C° 0.2 mm 5 mps 729 mmHg 89%
    09:00 0°C° 0 mm 5 mps 729 mmHg 89%
    10:00 0°C° 0 mm 5 mps 729 mmHg 89%
    11:00 0°C° 0 mm 5 mps 729 mmHg 89%
    12:00 0°C° 0 mm 5 mps 729 mmHg 88%
    13:00 0°C° 0 mm 5 mps 729 mmHg 88%
    14:00 0°C° 0 mm 5 mps 729 mmHg 87%
    15:00 0°C° 0.2 mm 4 mps 728 mmHg 88%
    16:00 0°C° 0.2 mm 4 mps 728 mmHg 89%
    17:00 -1°C° 0.2 mm 4 mps 728 mmHg 90%
    18:00 0°C° 0.4 mm 3 mps 728 mmHg 91%
    19:00 0°C° 0.4 mm 3 mps 728 mmHg 93%
    20:00 +1°C° 0.4 mm 2 mps 728 mmHg 94%
    21:00 -1°C° 0.2 mm 2 mps 728 mmHg 95%
    22:00 -1°C° 0.2 mm 2 mps 728 mmHg 96%
    23:00 +1°C° 0.2 mm 1 mps 727 mmHg 96%

    Tomorrow, 21 February, Thursday

    Time Temperature Precipitation Wind Pressure Humidity
    00:00 +1°C° 0.4 mm 1 mps 728 mmHg 97%
    01:00 +1°C° 0.4 mm 1 mps 728 mmHg 97%
    02:00 +1°C° 0.4 mm 1 mps 728 mmHg 97%
    03:00 -2°C° 0.6 mm 2 mps 728 mmHg 96%
    04:00 -2°C° 0.6 mm 3 mps 729 mmHg 95%
    05:00 -3°C° 0.6 mm 4 mps 729 mmHg 94%
    06:00 -3°C° 0.2 mm 4 mps 730 mmHg 93%
    07:00 -4°C° 0.2 mm 4 mps 731 mmHg 91%
    08:00 -5°C° 0.2 mm 5 mps 732 mmHg 90%
    09:00 -6°C° 0.2 mm 5 mps 733 mmHg 88%
    10:00 -9°C° 0.2 mm 6 mps 734 mmHg 86%
    11:00 -10°C° 0.2 mm 6 mps 735 mmHg 84%
    12:00 -10°C° 0.1 mm 6 mps 736 mmHg 82%
    13:00 -11°C° 0.1 mm 6 mps 737 mmHg 79%
    14:00 -11°C° 0.1 mm 6 mps 738 mmHg 77%
    15:00 -12°C° 0.1 mm 6 mps 739 mmHg 77%
    16:00 -12°C° 0.1 mm 6 mps 740 mmHg 76%
    17:00 -14°C° 0.1 mm 6 mps 741 mmHg 76%
    18:00 -14°C° 0 mm 6 mps 741 mmHg 75%
    19:00 -14°C° 0 mm 6 mps 742 mmHg 74%
    20:00 -15°C° 0 mm 6 mps 743 mmHg 73%
    21:00 -15°C° 0 mm 6 mps 743 mmHg 73%
    22:00 -15°C° 0 mm 6 mps 743 mmHg 74%
    23:00 -16°C° 0 mm 6 mps 744 mmHg 74%

    Day after tomorrow, 22 February, Friday

    Time Temperature Precipitation Wind Pressure Humidity
    00:00 -16°C° 0 mm 6 mps 744 mmHg 75%
    01:00 -16°C° 0 mm 6 mps 745 mmHg 75%
    02:00 -17°C° 0 mm 7 mps 745 mmHg 75%
    03:00 -17°C° 0 mm 7 mps 745 mmHg 74%
    04:00 -17°C° 0 mm 7 mps 746 mmHg 74%
    05:00 -17°C° 0 mm 7 mps 746 mmHg 74%
    06:00 -17°C° 0.1 mm 7 mps 746 mmHg 73%
    07:00 -17°C° 0.1 mm 8 mps 747 mmHg 72%
    08:00 -17°C° 0.1 mm 8 mps 747 mmHg 72%
    09:00 -16°C° 0 mm 8 mps 748 mmHg 68%
    10:00 -16°C° 0 mm 8 mps 748 mmHg 65%
    11:00 -15°C° 0 mm 8 mps 749 mmHg 62%
    12:00 -15°C° 0 mm 8 mps 749 mmHg 63%
    13:00 -15°C° 0 mm 8 mps 750 mmHg 63%
    14:00 -13°C° 0 mm 8 mps 750 mmHg 64%
    15:00 -14°C° 0 mm 7 mps 751 mmHg 66%
    16:00 -14°C° 0 mm 7 mps 751 mmHg 68%
    17:00 -15°C° 0 mm 6 mps 752 mmHg 71%
    18:00 -15°C° 0 mm 6 mps 752 mmHg 72%
    19:00 -16°C° 0 mm 6 mps 753 mmHg 74%
    20:00 -15°C° 0 mm 5 mps 754 mmHg 75%
    21:00 -15°C° 0 mm 5 mps 754 mmHg 77%
    22:00 -17°C° 0 mm 5 mps 754 mmHg 78%
    23:00 -17°C° 0 mm 5 mps 755 mmHg 79%

    23 February, Saturday

    Time Temperature Precipitation Wind Pressure Humidity
    00:00 -18°C° 0 mm 5 mps 755 mmHg 80%
    01:00 -17°C° 0 mm 4 mps 755 mmHg 80%
    02:00 -17°C° 0 mm 4 mps 756 mmHg 81%
    03:00 -18°C° 0 mm 4 mps 756 mmHg 81%
    04:00 -18°C° 0 mm 4 mps 756 mmHg 82%
    05:00 -17°C° 0 mm 3 mps 756 mmHg 83%
    06:00 -17°C° 0 mm 3 mps 757 mmHg 84%
    07:00 -17°C° 0 mm 3 mps 757 mmHg 85%
    08:00 -17°C° 0 mm 3 mps 757 mmHg 86%
    09:00 -16°C° 0 mm 3 mps 757 mmHg 83%
    10:00 -15°C° 0 mm 3 mps 757 mmHg 80%
    11:00 -13°C° 0 mm 2 mps 757 mmHg 77%
    12:00 -12°C° 0 mm 2 mps 757 mmHg 76%
    13:00 -12°C° 0 mm 2 mps 756 mmHg 75%
    14:00 -10°C° 0 mm 2 mps 756 mmHg 75%
    15:00 -10°C° 0 mm 2 mps 755 mmHg 77%
    16:00 -10°C° 0 mm 2 mps 755 mmHg 80%
    17:00 -10°C° 0 mm 2 mps 754 mmHg 82%
    18:00 -10°C° 0.1 mm 2 mps 754 mmHg 83%
    19:00 -12°C° 0.1 mm 3 mps 754 mmHg 85%
    20:00 -12°C° 0.1 mm 3 mps 753 mmHg 86%
    21:00 -10°C° 0.3 mm 3 mps 753 mmHg 88%
    22:00 -10°C° 0.3 mm 3 mps 752 mmHg 89%
    23:00 -10°C° 0.3 mm 3 mps 752 mmHg 91%

    24 February, Sunday

    Time Temperature Precipitation Wind Pressure Humidity
    00:00 -9°C° 0.1 mm 3 mps 751 mmHg 91%
    01:00 -9°C° 0.1 mm 3 mps 751 mmHg 92%
    02:00 -9°C° 0.1 mm 3 mps 751 mmHg 92%
    03:00 -9°C° 0.1 mm 3 mps 751 mmHg 93%
    04:00 -8°C° 0.1 mm 3 mps 751 mmHg 93%
    05:00 -7°C° 0.1 mm 2 mps 750 mmHg 94%
    06:00 -6°C° 0.1 mm 2 mps 751 mmHg 95%
    07:00 -6°C° 0.1 mm 2 mps 751 mmHg 95%
    08:00 -5°C° 0.1 mm 2 mps 751 mmHg 95%
    09:00 -4°C° 0 mm 2 mps 751 mmHg 95%
    10:00 -2°C° 0 mm 2 mps 751 mmHg 94%
    11:00 -1°C° 0 mm 2 mps 752 mmHg 94%
    12:00 -1°C° 0 mm 2 mps 752 mmHg 94%
    13:00 -1°C° 0 mm 2 mps 752 mmHg 95%
    14:00 +1°C° 0 mm 2 mps 752 mmHg 95%
    15:00 -1°C° 0 mm 2 mps 752 mmHg 95%
    16:00 -1°C° 0 mm 2 mps 752 mmHg 95%
    17:00 -2°C° 0 mm 2 mps 752 mmHg 95%
    18:00 -2°C° 0 mm 2 mps 751 mmHg 95%
    19:00 -3°C° 0 mm 2 mps 751 mmHg 95%
    20:00 -3°C° 0 mm 2 mps 751 mmHg 95%
    21:00 -4°C° 0 mm 3 mps 750 mmHg 94%
    22:00 -4°C° 0 mm 3 mps 749 mmHg 93%
    23:00 -4°C° 0 mm 4 mps 749 mmHg 92%

    25 February, Monday

    Time Temperature Precipitation Wind Pressure Humidity
    00:00 -3°C° 0 mm 4 mps 748 mmHg 91%
    01:00 -3°C° 0 mm 4 mps 747 mmHg 91%
    02:00 -4°C° 0 mm 5 mps 746 mmHg 90%
    03:00 -4°C° 0.3 mm 5 mps 745 mmHg 90%
    04:00 -4°C° 0.3 mm 5 mps 744 mmHg 91%
    05:00 -4°C° 0.3 mm 5 mps 743 mmHg 91%
    06:00 -2°C° 0.1 mm 5 mps 743 mmHg 91%
    07:00 -1°C° 0.1 mm 5 mps 743 mmHg 90%
    08:00 -1°C° 0.1 mm 5 mps 742 mmHg 90%
    09:00 -1°C° 0 mm 5 mps 742 mmHg 88%
    10:00 -1°C° 0 mm 5 mps 742 mmHg 87%
    11:00 -1°C° 0 mm 5 mps 742 mmHg 85%
    12:00 -1°C° 0.1 mm 4 mps 741 mmHg 86%
    13:00 -1°C° 0.1 mm 4 mps 741 mmHg 86%
    14:00 -2°C° 0.1 mm 4 mps 741 mmHg 87%
    15:00 -2°C° 0.1 mm 4 mps 741 mmHg 88%
    16:00 -2°C° 0.1 mm 3 mps 740 mmHg 89%
    17:00 -2°C° 0.1 mm 3 mps 740 mmHg 89%
    18:00 -2°C° 0 mm 3 mps 740 mmHg 90%
    19:00 -2°C° 0 mm 3 mps 740 mmHg 91%
    20:00 -4°C° 0 mm 3 mps 740 mmHg 92%
    21:00 -4°C° 0.1 mm 3 mps 741 mmHg 92%
    22:00 -4°C° 0.1 mm 3 mps 741 mmHg 92%
    23:00 -4°C° 0.1 mm 3 mps 741 mmHg 93%
    Show more